SCP
0 0 0 0 0 0 0 0 0 0 0 0 0 0 0 0 0 0 0 -0 -0 -0 0 0 0 0 0 0 0 0 0 0 0 0 0 0 0 0 0 0 0 0 0
0 0 0 0 0 0 0 0 0 0 0 0 0 0 0 0 0 0 0 0 -0 0 0 0 0 0 0 0 0 0 0 0 0 0 0 0 0 0 0 0 0 0 0
0 0 0 0 0 0 0 0 0 0 0 0 0 0 0 0 0 0 0 0 0 0 0 0 0 0 0 0 0 0 0 0 0 0 0 0 0 0 0 0 0 0 0
0 0 0 0 0 0 0 0 0 0 0 0 0 0 0 0 0 0 0 0 0 0 0 0 0 0 0 0 0 0 0 0 0 0 0 0 0 0 0 0 0 0 0
0 0 0 0 0 0 0 0 0 0 0 0 0 0 -0 0 0 0 0 0 0 0 0 0 0 0 0 0 0 0 0 0 0 0 0 0 0 0 0 0 0 0 0
0 0 1 1 0 0 0 0 0 0 0 0 -0 -0 -0 -0 -0 0 0 0 0 0 0 0 0 0 0 0 0 0 0 0 0 0 0 0 0 0 0 0 0 0 0
0 0 1 1 1 0 0 0 0 0 0 0 -0 -0 -0 -0 -0 0 0 0 0 0 0 0 0 0 0 0 0 0 0 0 0 0 0 0 0 0 0 0 0 0 0
0 0 1 1 1 0 0 0 0 0 0 0 -0 -0 -0 -0 -0 0 0 0 0 0 0 0 0 0 0 0 0 0 0 0 0 0 0 0 0 0 0 0 0 0 0
0 1 1 1 1 0 0 0 0 0 0 0 0 0 -0 -0 -0 0 0 0 0 0 0 0 0 0 0 0 0 0 0 0 0 0 0 0 0 0 0 0 0 0 0
1 1 1 1 0 0 0 0 0 0 0 0 0 0 0 -0 0 0 0 0 0 0 0 0 0 0 0 0 0 0 0 0 0 0 0 0 0 0 0 0 0 0 0
1 1 1 1 1 0 0 0 0 0 0 0 0 0 0 0 0 0 0 0 0 0 0 0 0 0 0 0 0 0 0 0 0 0 0 0 0 0 0 0 0 0 0
1 1 1 1 1 1 1 0 0 0 0 0 0 0 0 0 0 0 0 0 0 0 0 0 0 0 0 0 0 0 0 0 0 0 0 0 0 0 0 0 0 0 0
1 1 1 1 1 1 1 1 0 0 0 0 0 0 0 0 0 0 0 0 0 0 0 0 0 0 0 0 0 0 0 0 0 0 0 0 0 0 0 0 0 0 0
1 1 1 1 1 1 1 1 1 0 0 0 0 0 0 0 0 0 0 0 0 0 0 0 0 0 0 0 0 0 0 0 0 0 0 0 0 0 0 0 0 0 0
1 1 1 1 1 1 1 1 1 1 0 0 0 0 0 0 0 0 0 0 0 0 0 0 0 0 0 0 0 0 0 0 0 0 0 0 0 0 0 0 0 0 0
0 1 1 1 1 1 1 1 1 1 1 0 0 0 0 0 0 0 0 0 0 0 0 0 0 0 0 0 0 0 0 0 0 0 0 0 0 0 0 0 0 0 0
0 0 1 1 1 1 1 1 1 1 1 0 0 0 0 0 0 0 0 0 0 0 0 0 0 0 0 0 0 0 0 0 0 0 0 0 0 0 0 0 0 0 0
0 0 0 1 1 1 1 2 1 1 1 1 0 0 0 0 0 0 0 0 0 0 0 0 0 0 0 0 0 0 0 0 0 0 0 0 0 0 0 0 0 0 0
0 0 0 0 1 1 2 2 2 1 1 0 0 0 0 0 0 0 0 0 0 0 0 0 0 0 0 0 0 0 0 0 0 0 0 0 0 0 0 0 0 0 0
0 0 0 0 1 1 2 2 1 1 0 0 0 0 0 0 0 0 0 0 0 0 0 0 0 0 0 0 0 0 0 0 0 0 0 0 0 0 0 0 0 0 0
0 0 0 1 1 1 1 1 1 0 0 0 0 0 0 0 0 0 0 0 0 0 0 0 0 0 0 0 0 0 0 0 0 0 0 0 0 0 0 0 0 0 0
0 0 1 1 1 1 1 1 0 0 0 0 0 0 0 0 0 0 0 0 0 0 0 0 0 0 0 0 0 0 0 0 0 0 0 0 0 0 0 0 0 0 0
0 0 1 1 1 1 1 0 0 0 0 0 0 0 0 0 0 0 0 0 0 0 0 0 0 0 0 0 0 0 0 0 0 0 0 0 0 0 0 0 0 0 0
0 0 1 1 1 0 0 0 0 0 0 0 0 0 0 0 0 0 0 0 0 0 0 0 0 0 0 0 0 0 0 0 0 0 0 0 0 0 0 0 0 0 0
0 0 1 1 0 0 0 0 0 0 0 0 0 0 0 0 0 0 0 0 0 0 0 0 0 0 0 0 0 0 0 0 0 0 0 0 0 0 0 0 0 0 0
0 0 1 0 0 0 0 0 0 0 0 0 0 0 0 0 0 0 0 0 0 0 0 0 0 0 0 0 0 0 0 0 0 0 0 0 0 0 0 0 0 0 0
Wind_Speed
9 15 17 17 16 15 14 12 11 10 8 7 7 7 8 9 9 8 7 7 6 7 7 6 7 9 9 9 9 8 6 5 6 7 7 7 6 5 4 2 2 5 1
12 15 17 16 16 15 13 12 11 10 8 7 8 8 8 8 7 7 6 6 5 6 7 6 6 7 8 8 7 6 5 4 4 5 4 1 3 5 5 4 4 3 2
14 15 17 14 15 14 13 12 11 10 9 8 9 9 7 6 5 5 6 5 5 6 7 7 7 7 6 6 5 5 4 4 5 3 4 3 2 3 6 4 3 3 4
14 14 15 15 15 14 13 12 11 10 9 9 9 8 6 5 5 5 6 5 5 6 6 7 7 7 6 5 5 4 4 4 4 3 4 4 4 4 8 8 6 6 6
14 13 14 16 15 14 13 12 11 10 9 9 8 5 3 3 4 4 5 4 5 5 5 6 6 5 5 5 5 5 5 5 2 6 5 5 5 5 9 10 10 8 8
13 14 15 15 15 15 14 12 11 10 9 9 7 5 3 1 2 3 3 5 6 5 4 4 4 4 5 5 5 6 7 8 6 4 5 5 5 5 8 10 10 11 10
12 12 15 15 16 15 14 13 11 10 9 8 7 5 4 5 4 2 5 7 6 4 3 4 5 6 5 5 5 6 6 6 6 5 5 5 5 8 9 10 10 11 12
12 12 13 15 13 14 13 13 11 10 9 8 7 5 4 6 7 3 8 7 5 2 3 5 6 6 6 5 6 6 6 6 6 5 6 6 6 8 9 10 11 12 13
11 11 11 13 12 13 12 11 11 10 9 8 7 5 6 7 7 7 7 5 3 2 4 5 6 6 6 7 7 7 6 4 7 4 6 5 7 9 10 10 11 12 13
9 10 10 11 11 12 12 11 10 9 8 8 7 8 7 6 5 6 5 6 4 4 5 7 8 8 9 9 8 7 3 4 5 4 4 5 7 9 9 9 10 11 11
9 10 10 10 10 10 10 11 10 9 9 9 8 9 5 3 3 4 6 6 5 6 7 9 9 8 6 8 7 4 4 4 5 4 4 8 9 8 8 8 8 9 10
13 12 10 10 10 10 8 9 8 8 9 8 7 7 4 3 3 3 7 6 7 8 9 9 7 4 3 3 3 3 4 6 5 4 5 9 8 7 6 7 9 10 11
11 12 12 11 10 10 8 8 6 6 6 7 7 6 4 4 4 4 4 5 5 4 4 4 2 4 4 4 4 4 5 5 4 3 6 10 8 7 9 11 11 13 13
10 12 13 13 12 11 9 8 8 7 6 6 7 7 5 4 4 4 3 4 3 3 3 2 2 4 4 5 5 6 5 4 3 2 7 11 12 12 12 13 13 14 14
11 12 13 14 14 12 11 8 8 8 8 8 7 7 7 5 5 5 4 4 4 3 3 3 3 4 4 5 4 5 5 4 3 2 5 12 15 15 15 15 15 15 15
12 13 13 15 15 14 11 10 9 9 8 8 7 8 8 5 5 5 5 4 4 4 3 3 4 4 4 4 5 5 4 2 2 2 4 8 15 16 16 16 15 15 15
11 11 12 14 15 15 14 13 10 9 9 8 8 9 8 7 7 7 5 5 4 4 4 3 4 3 4 4 4 4 3 1 2 3 4 4 6 12 14 15 15 15 14
10 10 10 10 15 15 13 13 10 10 10 8 7 7 9 9 10 7 6 5 5 4 3 3 3 3 4 5 4 3 2 2 2 3 4 4 4 4 7 12 14 14 14
11 10 10 12 15 15 13 12 11 10 9 7 7 7 9 11 10 8 6 6 6 4 4 4 4 4 5 6 5 3 2 3 3 2 3 4 4 4 5 7 9 10 12
10 9 10 12 14 14 12 10 8 9 8 7 7 8 11 10 10 9 7 7 6 5 4 4 5 5 5 6 5 2 0 2 3 1 0 0 2 4 5 7 7 7 9
10 9 10 12 14 13 11 11 10 9 8 8 7 9 10 11 10 9 7 7 5 5 5 5 4 5 5 6 5 2 1 2 3 2 2 3 2 4 6 8 7 7 7
12 10 11 14 15 16 13 11 8 9 8 8 8 8 8 9 9 8 9 7 6 6 6 5 4 3 4 5 5 4 3 2 2 2 3 3 4 5 7 9 9 9 9
13 12 11 15 16 16 15 10 10 8 8 7 8 6 6 7 8 9 10 8 7 6 5 5 4 4 3 3 4 4 4 3 5 4 4 5 6 6 8 8 10 10 9
16 13 14 15 17 17 16 15 18 12 11 10 8 8 8 8 9 10 10 9 7 6 6 5 4 3 3 2 2 2 3 3 5 5 4 5 7 8 9 8 10 10 9
15 14 15 16 17 18 17 17 16 13 11 11 11 12 10 9 9 10 9 8 7 6 6 5 4 3 2 2 2 2 3 3 5 5 8 8 7 7 7 9 9 8 8
13 14 16 18 18 18 18 17 16 18 17 17 15 13 10 8 8 10 9 8 7 6 6 5 4 3 1 1 2 3 3 4 5 6 8 10 10 8 10 8 7 7 8
Wind_Direction
158 160 157 158 153 152 147 140 132 124 120 123 131 137 139 134 124 116 109 94 69 50 39 35 36 43 55 78 93 93 83 60 43 38 37 32 18 360 350 338 254 244 268
153 159 157 161 157 155 150 141 134 128 125 125 127 123 119 121 119 116 112 101 74 51 41 41 41 40 45 51 59 61 55 44 31 36 27 53 54 358 350 348 325 338 330
154 158 160 163 159 157 152 144 139 135 130 128 125 117 117 122 121 122 123 109 80 56 48 51 49 45 42 38 34 27 18 9 22 38 278 310 48 11 344 325 283 252 268
157 161 163 159 162 160 154 149 147 143 134 134 132 129 133 138 141 144 144 125 94 67 58 57 54 48 42 34 24 14 6 2 19 304 297 352 336 12 327 317 299 256 259
162 165 152 158 164 161 156 154 153 149 143 142 138 126 137 160 161 157 154 129 106 86 70 61 51 37 25 11 1 353 352 356 335 275 344 344 329 358 321 309 307 300 275
167 166 152 162 163 161 159 159 157 154 154 154 143 117 90 85 211 202 168 133 122 107 79 55 33 17 8 357 352 352 358 9 303 332 338 330 327 354 319 306 298 294 290
169 168 155 161 162 163 162 163 162 160 162 163 158 138 93 54 29 234 163 141 134 117 68 25 8 5 359 352 353 2 7 351 321 337 328 325 343 338 312 300 290 285 280
169 168 158 159 161 163 165 166 165 164 165 167 169 159 108 57 36 78 142 140 135 103 34 11 359 353 352 356 3 15 21 348 317 325 328 323 6 326 309 301 293 287 280
171 172 166 165 168 165 165 166 166 166 165 164 166 144 103 76 56 71 109 124 113 57 26 10 3 9 26 33 38 42 38 352 308 340 330 337 357 317 308 309 312 308 300
176 179 174 172 176 176 173 166 166 163 160 156 140 114 105 105 96 80 96 77 60 38 28 34 47 55 61 57 51 46 19 284 341 334 333 4 333 310 311 324 333 332 331
183 187 185 180 180 182 177 163 171 167 162 158 143 127 155 186 166 143 78 63 56 53 56 64 67 69 76 77 55 17 303 334 338 334 347 356 325 317 318 329 340 346 346
187 189 189 189 186 184 176 174 183 179 175 183 165 164 171 149 141 129 108 85 81 88 88 78 75 69 354 26 44 315 337 330 324 334 9 354 337 330 343 11 26 26 26
196 189 191 189 190 189 183 184 182 181 179 182 176 170 160 151 149 156 148 140 126 120 101 96 88 42 22 16 346 344 346 328 327 338 29 18 22 32 46 48 45 38 35
211 200 194 189 187 190 191 188 188 184 183 181 180 180 171 157 153 142 125 99 98 91 77 59 36 35 12 2 350 338 338 330 337 1 50 38 46 49 48 44 39 32 26
217 211 201 194 191 188 191 191 193 190 186 184 177 180 175 165 154 130 106 95 88 81 77 46 28 21 2 357 357 340 339 340 354 57 82 56 52 50 47 40 34 26 19
223 214 204 197 194 191 190 189 191 191 188 185 178 177 176 163 136 118 108 98 89 77 61 48 37 12 0 356 352 344 336 345 34 90 97 82 61 52 48 40 30 21 11
233 224 211 203 195 195 194 193 188 185 184 185 177 174 168 145 129 119 115 109 103 95 80 55 43 9 2 351 353 354 341 353 120 100 85 78 78 63 48 35 24 14 4
241 229 218 206 199 196 195 194 186 182 181 178 170 161 148 136 129 123 120 113 113 103 87 65 25 11 8 356 349 352 311 180 134 99 88 70 55 44 47 30 15 6 357
241 228 215 208 200 193 193 194 185 175 170 160 149 142 138 133 133 129 123 122 120 106 88 75 45 17 8 356 342 336 297 185 139 129 90 65 52 30 13 13 360 355 348
246 231 214 202 190 183 186 184 166 155 149 139 136 138 137 132 133 128 125 128 124 113 101 88 72 42 12 344 328 337 346 202 203 196 321 46 19 5 355 352 341 336 330
242 227 211 191 177 175 177 170 163 155 143 129 123 129 132 131 132 132 129 126 119 106 98 82 71 50 26 350 331 326 200 203 234 216 296 290 315 326 328 339 334 327 321
237 221 203 184 176 178 179 173 163 139 125 116 114 111 121 129 135 134 131 125 120 115 104 87 66 50 41 15 351 330 321 218 180 260 296 285 303 310 323 330 325 321 319
229 213 196 181 177 179 174 154 137 123 122 119 117 112 121 131 135 132 127 125 123 117 106 90 69 48 36 37 19 353 329 320 318 284 295 299 306 315 319 321 316 316 313
217 204 191 177 177 177 168 165 163 159 154 151 140 131 133 134 133 128 127 126 123 117 114 101 81 65 26 15 25 360 317 308 294 301 280 281 297 302 303 308 311 306 305
206 189 181 174 177 174 172 172 169 155 140 132 130 133 134 134 132 132 131 127 124 118 114 114 109 88 48 358 335 315 291 276 266 283 296 305 300 293 298 301 296 291 303
193 181 175 175 176 173 172 171 166 148 142 142 144 144 144 141 137 134 131 127 128 126 127 130 129 125 126 263 274 280 294 293 296 289 291 301 304 306 302 294 287 290 308